Oakland, CA

11:00 PM PDT on October 20, 2019 (GMT -0700)
Metro Oakland International

Weather History for KOAK - August, 2019

Change the Weather History Date:

Wednesday, August 7, 2019

  Actual Average Record
Temperature  
Mean Temperature 66 °F 63 °F  
Max Temperature 71 °F 71 °F 88 °F (1984)
Min Temperature 60 °F 56 °F 51 °F (2002)
Degree Days  
Heating Degree Days 0 2  
Month to date heating degree days 0 15  
Since 1 June heating degree days 47 201  
Since 1 July heating degree days 15 98  
Cooling Degree Days 1 0  
Month to date cooling degree days 16 0  
Year to date cooling degree days 142 52  
Since 1 June cooling degree days 133 36  
Growing Degree Days 15 (Base 50)    
Moisture  
Dew Point 55 °F    
Average Humidity 73    
Maximum Humidity 84    
Minimum Humidity 61    
Precipitation  
Precipitation 0.00 in 0.00 in 0.00 in (2019)
Month to date precipitation 0.00 0.00  
Year to date precipitation 15.71 13.23  
Sea Level Pressure  
Sea Level Pressure 29.96 in    
Wind  
Wind Speed 12 mph (WSW)    
Max Wind Speed 21 mph    
Max Gust Speed 24 mph    
Visibility 10 miles    
Events      
T = Trace of Precipitation, MM = Missing Value Source: NWS Daily Summary

Daily Weather History Graph

Daily Weather History Graph

Search for Another Location

Airport or City:

Astronomy

Aug. 07, 2019 Rise Set
Actual Time 6:17 AM PDT 8:11 PM PDT
Civil Twilight 5:48 AM PDT 8:39 PM PDT
Nautical Twilight 5:14 AM PDT 9:14 PM PDT
Astronomical Twilight 4:36 AM PDT 9:51 PM PDT
Moon 1:47 PM PDT (8/7) 12:07 AM PDT (8/7)
Length of Visible Light 14h 50m
Length of Day
13h 53m
Waxing Crescent, 51% of the Moon is Illuminated
Aug 7
Waxing Crescent
Aug 15
Full
Aug 23
Last Quarter
Aug 30
New
Sep 5
First Quarter

Hourly Weather History & Observations

Time (PDT) Temp. Dew Point Humidity Pressure Visibility Wind Dir Wind Speed Gust Speed Precip Events Conditions
12:53 AM 61.0 °F 55.0 °F 81% 29.95 in 10.0 mi WSW 11.5 mph 17.3 mph N/A   Overcast
1:53 AM 61.0 °F 55.0 °F 81% 29.94 in 10.0 mi SW 11.5 mph - N/A   Overcast
2:53 AM 61.0 °F 55.0 °F 81% 29.94 in 10.0 mi SSW 9.2 mph 16.1 mph N/A   Overcast
3:53 AM 61.0 °F 55.0 °F 81% 29.94 in 10.0 mi SW 13.8 mph 21.9 mph N/A   Overcast
4:53 AM 60.1 °F 55.0 °F 83% 29.94 in 10.0 mi SW 12.7 mph - N/A   Overcast
5:00 AM 60.1 °F 55.0 °F 83% 29.94 in 10.0 mi WSW 12.7 mph - N/A   Overcast
5:53 AM 60.1 °F 55.0 °F 83% 29.94 in 10.0 mi WSW 12.7 mph - N/A   Mostly Cloudy
6:15 AM 60.1 °F 55.0 °F 83% 29.94 in 10.0 mi WSW 13.8 mph - N/A   Mostly Cloudy
6:37 AM 60.1 °F 55.0 °F 83% 29.94 in 10.0 mi WSW 11.5 mph - N/A   Overcast
6:53 AM 60.1 °F 55.0 °F 83% 29.95 in 5.0 mi WSW 12.7 mph - N/A   Haze
7:53 AM 61.0 °F 55.0 °F 81% 29.96 in 7.0 mi WSW 10.4 mph - N/A   Overcast
8:53 AM 62.1 °F 55.0 °F 78% 29.97 in 10.0 mi WSW 11.5 mph - N/A   Overcast
9:53 AM 63.0 °F 55.0 °F 75% 29.97 in 10.0 mi WSW 11.5 mph - N/A   Overcast
10:36 AM 64.9 °F 55.0 °F 70% 29.98 in 10.0 mi WSW 9.2 mph - N/A   Scattered Clouds
10:53 AM 64.9 °F 55.9 °F 73% 29.98 in 10.0 mi WSW 10.4 mph - N/A   Mostly Cloudy
11:53 AM 66.0 °F 55.0 °F 68% 29.99 in 10.0 mi WSW 8.1 mph - N/A   Scattered Clouds
12:53 PM 66.9 °F 55.0 °F 66% 29.98 in 10.0 mi West 9.2 mph - N/A   Partly Cloudy
1:53 PM 69.1 °F 55.0 °F 61% 29.98 in 10.0 mi West 13.8 mph 21.9 mph N/A   Partly Cloudy
2:53 PM 70.0 °F 55.0 °F 59% 29.97 in 10.0 mi West 13.8 mph - N/A   Partly Cloudy
3:53 PM 70.0 °F 55.9 °F 61% 29.96 in 10.0 mi West 15.0 mph - N/A   Partly Cloudy
4:53 PM 68.0 °F 55.9 °F 65% 29.95 in 10.0 mi West 16.1 mph - N/A   Partly Cloudy
5:53 PM 66.9 °F 55.0 °F 66% 29.94 in 10.0 mi West 15.0 mph - N/A   Partly Cloudy
6:53 PM 66.0 °F 55.0 °F 68% 29.93 in 10.0 mi West 16.1 mph - N/A   Partly Cloudy
7:53 PM 64.0 °F 55.0 °F 73% 29.94 in 10.0 mi West 15.0 mph - N/A   Scattered Clouds
8:53 PM 63.0 °F 55.0 °F 75% 29.95 in 10.0 mi West 16.1 mph - N/A   Scattered Clouds
9:26 PM 63.0 °F 55.0 °F 75% 29.96 in 10.0 mi West 11.5 mph - N/A   Mostly Cloudy
9:53 PM 62.1 °F 55.0 °F 78% 29.97 in 10.0 mi West 12.7 mph - N/A   Mostly Cloudy
10:53 PM 62.1 °F 55.0 °F 78% 29.97 in 10.0 mi WSW 9.2 mph - N/A   Mostly Cloudy
11:53 PM 62.1 °F 55.0 °F 78% 29.97 in 10.0 mi SW 9.2 mph - N/A   Overcast